Flag for U.S.A. Weather past 2 weeks in Jacksonville, Florida, U.S.A.

Now
79 °F

Passing clouds.


Feels Like: 82 °F
Forecast: 74 / 83 °F
Wind: 7 mph from West

Location: Jacksonville Naval Air Station

Current Time: Sep 16, 2014 at 8:04:58 AM

Latest Report: Sep 16, 2014 at 6:53 AM


Visibility: 10 mi

Pressure: 30.06 "Hg

Humidity: 79%

Dew point: 72 °F

Location of JacksonvilleLocation

Historic Weather in Jacksonville — Graph

°F

Jacksonville temperature yesterday

Maximum temperature yesterday: 93 °F (at 4:53 PM)
Minimum temperature yesterday: 79 °F (at 6:53 AM)
Average temperature yesterday: 84 °F

Past Weeks' High & Low Weather Summary

 TemperatureHumidityPressure
High95 °F (Sep 1, 1:53 PM)88% (Sep 6, 8:02 AM)30.16 "Hg (Sep 6, 8:02 AM)
Low76 °F (Sep 5, 7:53 PM)40% (Sep 13, 4:53 PM)29.94 "Hg (Sep 6, 4:53 PM)
Average84 °F70%30.04 "Hg
* Reported Sep 1 6:53 AM — Sep 16 6:53 AM, Jacksonville, Weather by CustomWeather, © 2014

Note: Actual official high and low records may vary slightly from our data, if they occured in-between our weather recording intervals... More about our weather records

Advertising

Jacksonville weather history for previous 24 hours

 ConditionsComfort  
Time TempWeatherWind HumidityBarometerVisibility
6:53 AM
Sep 16
79 °FPassing clouds.7 mph79%30.06 "Hg10 mi
5:53 AM80 °FPassing clouds.10 mph79%30.06 "Hg10 mi
4:53 AM80 °FPassing clouds.10 mph76%30.05 "Hg10 mi
3:53 AM80 °FPassing clouds.8 mph79%30.06 "Hg10 mi
2:53 AM81 °FPassing clouds.6 mph79%30.07 "Hg10 mi
1:53 AM81 °FPassing clouds.No wind77%30.09 "Hg10 mi
12:53 AM81 °FPartly cloudy.6 mph79%30.12 "Hg10 mi
11:53 PM
Sep 15
82 °FMostly cloudy.No wind77%30.12 "Hg10 mi
10:53 PM81 °FPartly cloudy.3 mph82%30.12 "Hg10 mi
9:53 PM82 °FOvercast.3 mph82%30.12 "Hg10 mi
8:53 PM82 °FPassing clouds.3 mph82%30.11 "Hg10 mi
7:53 PM82 °FLight rain. Broken clouds.No wind79%30.11 "Hg10 mi
6:53 PM81 °FThunderstorms. Mostly cloudy.7 mph79%30.09 "Hg10 mi
5:53 PM85 °FThunderstorms. More clouds than sun.9 mph65%30.08 "Hg10 mi
4:53 PM93 °FBroken clouds.8 mph47%30.06 "Hg10 mi
3:53 PM91 °FBroken clouds.8 mph50%30.07 "Hg10 mi
2:53 PM89 °FLight rain. Scattered clouds.8 mph59%30.09 "Hg8 mi
1:53 PM91 °FScattered clouds.9 mph52%30.11 "Hg10 mi
12:53 PM88 °FScattered clouds.7 mph61%30.14 "Hg10 mi
11:53 AM87 °FScattered clouds.9 mph63%30.15 "Hg10 mi
10:53 AM85 °FScattered clouds.8 mph68%30.15 "Hg10 mi
9:53 AM84 °FScattered clouds.7 mph70%30.16 "Hg10 mi
8:53 AM81 °FPartly sunny.3 mph74%30.15 "Hg10 mi
Weather by CustomWeather, © 2014

See weather overviewHow to use our weather pages